Stations météo

Publicité
Biscarosse, France (7503): Température de l'air & dewpoint: 09.11.2019 16:00:00 - 15.11.2019 16:00:00 (CET)Biscarosse, France (7503): Température de l'air 5cm: 09.11.2019 16:00:00 - 15.11.2019 16:00:00 (CET)Biscarosse, France (7503): Température de l'air -20cm & Température de l'air -100cm: 09.11.2019 16:00:00 - 15.11.2019 16:00:00 (CET)Biscarosse, France (7503): Vitesse du vent & gusts: 09.11.2019 16:00:00 - 15.11.2019 16:00:00 (CET)Biscarosse, France (7503): Direction du vent: 09.11.2019 16:00:00 - 15.11.2019 16:00:00 (CET)Biscarosse, France (7503): reduced air pressure: 09.11.2019 16:00:00 - 15.11.2019 16:00:00 (CET)Biscarosse, France (7503): visibility: 09.11.2019 16:00:00 - 15.11.2019 16:00:00 (CET)Biscarosse, France (7503): Ensoleillement: 09.11.2019 16:00:00 - 15.11.2019 16:00:00 (CET)Biscarosse, France (7503): Quantités de précipitations: 09.11.2019 16:00:00 - 15.11.2019 16:00:00 (CET)
Date & Time tt [°C] td [°C] tt 5cm [°C] tt -20cm [°C] tt -100cm [°C] ff [km/h] ff [knt] fx [km/h] fx [knt] dd ppp [hPa] vv [km] sd [min] rr [mm]
15.11.2019 16:00:00 8,4 4,4 9,1 9,4 13,5 8 4 16 9 ENE 1002,5 20 40 0,0
15.11.2019 15:00:00 8,7 4,3 10,2 9,1 13,5 10 5 24 13 NNE 1002,2 20 30 0,0
15.11.2019 14:00:00 8,6 4,6 11,3 8,9 13,6 12 6 20 11 NNE 1001,9 20 44 0,0
15.11.2019 13:00:00 7,4 5,7 7,6 8,7 13,6 10 5 22 12 NE 1001,5 20 13 0,0
15.11.2019 12:00:00 6,6 5,1 7,8 8,5 13,7 11 6 28 15 NNE 1001,3 20 10 0,0
15.11.2019 11:00:00 6,2 5,2 6,4 8,4 13,7 10 6 21 11 NNE 1000,5 20 42 0,0
15.11.2019 10:00:00 5,0 4,4 4,4 8,4 13,9 8 4 18 10 NNE 999,3 20 0 0,2
15.11.2019 09:00:00 4,7 4,1 4,5 8,5 14,0 11 6 27 15 ENE 998,6 12 0 3,0
15.11.2019 08:00:00 4,9 4,3 4,7 8,7 14,0 16 8 31 17 ENE 997,2 7 0 1,8
15.11.2019 07:00:00 5,4 5,0 5,2 8,7 14,1 16 9 30 16 E 996,4 16 0 0,6
15.11.2019 06:00:00 5,7 5,1 5,5 9,0 14,1 15 8 30 16 E 996,7 5 0 4,7
15.11.2019 05:00:00 6,1 5,5 5,8 9,1 14,1 13 7 23 12 SE 996,7 7 0 3,2
15.11.2019 04:00:00 6,4 5,8 5,9 9,2 14,1 10 5 25 14 ESE 997,3 9 0 0,6
15.11.2019 03:00:00 6,4 5,7 5,6 9,3 14,1 11 6 23 12 ESE 997,6 8 0 0,6
15.11.2019 02:00:00 6,1 5,2 5,3 9,4 14,2 11 6 21 12 ESE 997,9 20 0 0,0
15.11.2019 01:00:00 6,0 5,1 4,9 9,5 14,2 6 3 13 7 E 998,3 20 0 0,0
15.11.2019 00:00:00 5,4 4,5 4,5 9,6 14,2 9 5 22 12 ESE 998,2 20 0 0,0
14.11.2019 23:00:00 6,2 4,7 4,7 9,8 14,2 5 3 32 18 NE 998,2 20 0 0,0
14.11.2019 22:00:00 8,0 4,6 5,2 9,9 14,2 24 13 37 20 NNW 998,2 18 0 0,0
14.11.2019 21:00:00 8,9 2,9 4,8 10,0 14,2 23 12 33 18 NW 998,0 20 0 0,0
14.11.2019 20:00:00 6,5 4,8 5,3 10,1 14,3 4 2 40 21 SE 997,4 20 0 0,0
14.11.2019 19:00:00 9,4 4,0 6,0 10,2 14,4 29 15 37 20 NW 997,6 19 0 0,0
14.11.2019 18:00:00 8,4 5,3 6,5 10,3 14,4 25 13 49 27 WNW 997,1 16 0 0,2
14.11.2019 17:00:00 7,4 6,3 5,8 10,5 14,4 19 11 43 23 W 996,8 4,3 0 3,4
14.11.2019 16:00:00 7,8 5,3 6,6 10,5 14,4 19 10 45 24 W 996,6 10 0 0,2
14.11.2019 15:00:00 7,1 5,7 5,5 10,6 14,4 25 14 56 30 W 996,8 4,4 0 3,7
14.11.2019 14:00:00 8,5 7,0 6,9 10,6 14,4 38 20 50 27 SW 996,9 6 0 0,8
14.11.2019 13:00:00 7,0 5,9 6,3 10,6 14,4 24 13 63 34 WSW 997,8 6 0 2,6
14.11.2019 12:00:00 7,4 6,2 6,7 10,6 14,4 37 20 55 30 SSW 998,1 20 0 0,8
14.11.2019 11:00:00 9,3 5,5 9,4 10,6 14,4 21 11 34 18 S 998,7 20 9 0,0
14.11.2019 10:00:00 9,1 4,5 7,2 10,6 14,4 21 11 33 18 SSW 999,0 20 0 0,0
14.11.2019 09:00:00 9,0 4,6 6,7 10,8 14,5 27 14 52 28 WSW 999,4 17 0 0,0
14.11.2019 08:00:00 8,8 4,8 6,7 10,9 14,5 32 18 78 42 WNW 999,9 18 0 0,6
14.11.2019 07:00:00 10,4 3,2 9,0 11,0 14,5 38 21 61 33 W 999,7 20 0 0,0
14.11.2019 06:00:00 10,0 3,3 7,5 11,1 14,5 34 19 54 29 W 999,7 19 0 0,0
14.11.2019 05:00:00 10,0 4,1 6,8 11,3 14,5 39 21 56 31 W 999,4 19 0 0,0
14.11.2019 04:00:00 7,8 5,4 6,8 11,4 14,6 37 20 80 43 W 1000,1 11 0 1,0
14.11.2019 03:00:00 10,5 5,5 7,5 11,5 14,7 42 23 68 37 W 1000,3 18 0 0,6
14.11.2019 02:00:00 9,6 6,3 8,0 11,6 14,7 54 29 74 40 W 1000,6 10 0 0,4
14.11.2019 01:00:00 9,8 8,4 8,5 11,7 14,8 56 30 77 41 WNW 1001,4 6 0 2,2
14.11.2019 00:00:00 10,6 9,5 9,8 11,8 14,8 56 31 79 43 WNW 1000,4 3,9 0 5,9
13.11.2019 23:00:00 11,5 10,1 10,6 11,9 14,8 54 29 74 40 W 1000,8 2,7 0 5,4
13.11.2019 22:00:00 12,0 10,7 10,7 12,0 14,8 47 26 66 36 SW 1002,1 3,8 0 3,7
13.11.2019 21:00:00 12,2 9,8 10,0 12,1 14,8 45 24 61 33 SW 1004,0 10 0 0,2
13.11.2019 20:00:00 11,5 9,7 9,9 12,2 14,8 34 18 56 30 WSW 1006,3 4,3 0 1,2
13.11.2019 19:00:00 12,8 6,2 11,2 12,3 14,8 35 19 52 28 WSW 1007,1 19 0 0,0
13.11.2019 18:00:00 12,2 6,2 9,7 12,4 14,8 35 19 48 26 WSW 1008,3 20 0 0,0
13.11.2019 17:00:00 11,7 5,6 9,5 12,3 14,8 29 16 35 19 WSW 1008,9 20 15 0,0
13.11.2019 16:00:00 10,9 8,8 9,9 12,1 14,8 13 7 27 15 WSW 1009,8 14 12 0,2
13.11.2019 15:00:00 10,8 7,8 9,7 11,8 14,8 16 9 34 18 SW 1010,6 6 22 0,4
13.11.2019 14:00:00 12,8 5,9 13,8 11,6 14,8 21 11 29 15 SSW 1010,8 20 18 0,0
13.11.2019 13:00:00 11,4 5,7 13,7 11,4 14,8 9 5 16 9 WSW 1011,3 20 0 0,0
13.11.2019 12:00:00 10,7 7,2 12,0 11,3 14,8 6 3 10 6 S 1011,8 20 8 0,0
13.11.2019 11:00:00 10,4 7,1 10,1 11,2 14,8 5 3 9 5 E 1011,6 20 38 0,0
13.11.2019 10:00:00 9,0 7,1 7,9 11,2 14,8 3 2 12 7 E 1011,2 20 7 0,0
13.11.2019 09:00:00 8,0 6,6 6,6 11,4 14,8 8 5 14 8 ENE 1010,3 20 0 0,0
13.11.2019 08:00:00 7,4 6,2 6,6 11,5 14,8 5 3 13 7 ENE 1009,7 20 0 0,0
13.11.2019 07:00:00 7,7 6,5 7,0 11,6 14,8 5 3 9 5 NE 1008,6 20 0 0,0
13.11.2019 06:00:00 8,7 7,8 7,7 11,7 14,8 6 3 8 5 NNE 1008,1 20 0 0,0
13.11.2019 05:00:00 9,2 8,4 8,8 11,7 14,8 6 3 13 7 NNE 1007,5 20 0 0,0
13.11.2019 04:00:00 9,2 8,4 8,9 11,8 14,8 7 4 16 9 ENE 1006,9 20 0 0,0
13.11.2019 03:00:00 9,5 8,9 9,2 11,9 14,8 6 3 14 8 ENE 1006,6 20 0 0,0
13.11.2019 02:00:00 9,9 9,3 9,4 11,9 14,8 8 4 13 7 E 1006,7 20 0 0,2
13.11.2019 01:00:00 9,9 9,3 9,2 12,0 14,8 5 3 11 6 NE 1006,8 8 0 0,0
13.11.2019 00:00:00 10,0 9,2 9,5 12,1 14,7 6 3 10 5 E 1006,6 20 0 0,0
12.11.2019 23:00:00 10,3 9,4 9,3 12,2 14,7 5 3 16 8 E 1007,2 20 0 0,0
12.11.2019 22:00:00 10,8 9,4 10,2 12,2 14,7 6 3 14 8 E 1007,7 20 0 0,0
12.11.2019 21:00:00 10,8 9,7 10,1 12,3 14,8 3 2 16 9 SSE 1007,9 20 0 0,0
12.11.2019 20:00:00 10,6 9,7 9,6 12,4 14,8 13 7 18 10 WNW 1008,1 15 0 0,0
12.11.2019 19:00:00 11,2 9,8 10,2 12,4 14,8 2 1 20 11 E 1008,5 16 0 0,0
12.11.2019 18:00:00 11,7 9,9 10,5 12,4 14,8 16 8 32 18 W 1008,8 7 0 0,2
12.11.2019 17:00:00 13,2 8,3 12,7 12,3 14,8 25 14 32 17 WNW 1009,4 19 17 0,0
12.11.2019 16:00:00 13,0 8,9 11,8 12,0 14,8 24 13 47 26 W 1010,0 16 16 0,0
12.11.2019 15:00:00 13,6 8,4 13,0 11,8 14,8 27 15 37 20 WNW 1010,5 18 42 0,0
12.11.2019 14:00:00 12,2 9,2 12,2 11,5 14,8 32 17 45 24 NW 1011,1 7 24 0,8
12.11.2019 13:00:00 14,9 8,4 15,0 11,3 14,8 32 18 40 22 W 1011,5 19 39 0,0
12.11.2019 12:00:00 14,6 8,5 14,0 11,1 14,8 31 17 42 23 WNW 1012,5 19 14 0,0
12.11.2019 11:00:00 13,9 8,3 12,4 10,9 14,8 24 13 38 21 WNW 1012,9 18 17 0,0
12.11.2019 10:00:00 13,6 8,0 12,6 10,9 14,8 29 16 41 22 WNW 1013,1 18 18 0,0
12.11.2019 09:00:00 13,0 7,2 9,9 10,9 14,8 33 18 48 26 NW 1013,3 20 0 0,0
12.11.2019 08:00:00 11,6 8,3 10,0 10,9 14,8 39 21 56 30 W 1013,1 12 0 0,0
12.11.2019 07:00:00 12,9 8,4 10,5 10,9 14,8 37 20 54 29 WNW 1013,3 14 0 0,0
12.11.2019 06:00:00 12,8 7,5 11,5 10,9 14,8 35 19 46 25 WNW 1013,7 18 0 0,0
12.11.2019 05:00:00 12,7 7,4 11,5 11,0 14,8 32 17 45 24 WNW 1014,0 20 0 0,0
12.11.2019 04:00:00 12,8 7,2 11,1 11,0 14,9 29 16 43 23 WNW 1014,3 18 0 0,0
12.11.2019 03:00:00 12,8 6,8 11,8 11,0 14,8 34 18 42 23 WNW 1015,1 18 0 0,0
12.11.2019 02:00:00 12,9 7,8 11,6 11,1 14,9 31 17 42 23 WNW 1015,4 20 0 0,0
12.11.2019 01:00:00 12,4 7,1 11,4 11,1 14,9 28 15 43 23 W 1016,4 20 0 0,0
12.11.2019 00:00:00 12,4 7,7 11,5 11,2 14,9 40 22 52 28 W 1016,9 17 0 0,0
11.11.2019 23:00:00 12,6 5,5 11,5 11,2 14,9 32 18 42 23 WNW 1017,0 19 0 0,0
11.11.2019 22:00:00 12,7 5,1 9,6 11,3 15,0 35 19 54 29 WNW 1017,0 20 0 0,0
11.11.2019 21:00:00 10,8 7,1 9,4 11,4 15,0 21 11 44 24 NNW 1017,1 15 0 0,0
11.11.2019 20:00:00 12,3 5,5 11,1 11,5 15,0 31 17 65 35 NW 1016,9 20 0 0,0
11.11.2019 19:00:00 12,4 5,5 9,0 11,5 15,0 44 24 56 31 NW 1016,3 18 0 0,0
11.11.2019 18:00:00 11,0 8,4 9,6 11,6 15,0 40 22 61 33 NNW 1015,8 6 0 0,4
11.11.2019 17:00:00 12,8 5,7 12,0 11,6 15,0 51 28 65 35 NW 1014,8 19 0 0,0
11.11.2019 16:00:00 13,1 4,3 12,7 11,4 15,1 50 27 71 38 NNW 1014,1 20 6 0,0
11.11.2019 15:00:00 12,9 6,9 12,1 11,3 15,1 53 29 77 42 NNW 1012,9 13 0 0,0
11.11.2019 14:00:00 12,5 8,8 12,3 11,0 15,1 69 37 87 47 NNW 1011,1 12 0 0,8
11.11.2019 13:00:00 12,4 12,1 11,1 10,8 15,1 40 21 51 28 SSW 1010,8 2,0 0 4,7
11.11.2019 12:00:00 10,9 10,4 10,6 10,7 15,1 13 7 23 13 SSE 1012,2 3,1 0 1,2
11.11.2019 11:00:00 10,7 9,9 10,3 10,6 15,1 11 6 31 17 S 1012,9 3,0 0 1,0
11.11.2019 10:00:00 10,3 8,4 9,8 10,5 15,1 18 10 31 17 SW 1013,1 19 0 0,0
11.11.2019 09:00:00 11,3 9,4 9,6 10,4 15,1 22 12 33 18 WSW 1013,4 12 0 0,0
11.11.2019 08:00:00 12,9 6,2 11,7 10,4 15,2 21 12 32 17 W 1013,4 19 0 0,0
11.11.2019 07:00:00 12,7 6,3 11,5 10,4 15,2 24 13 33 18 W 1013,3 15 0 0,0
11.11.2019 06:00:00 12,7 6,7 10,8 10,4 15,2 24 13 35 19 W 1013,9 16 0 0,0
11.11.2019 05:00:00 11,8 6,9 8,6 10,3 15,2 29 16 37 20 W 1014,4 17 0 0,0
11.11.2019 04:00:00 10,9 7,6 6,9 10,4 15,2 18 10 37 20 WSW 1015,1 10 0 0,0
11.11.2019 03:00:00 7,7 6,6 6,8 10,4 15,2 5 3 26 14 S 1015,8 13 0 0,0
11.11.2019 02:00:00 8,1 6,4 6,7 10,6 15,2 13 7 22 12 NW 1015,9 12 0 0,0
11.11.2019 01:00:00 7,0 5,9 6,1 10,7 15,2 9 5 11 6 SE 1016,2 19 0 0,0
11.11.2019 00:00:00 7,1 5,7 6,3 10,9 15,3 8 4 14 7 SE 1016,1 20 0 0,0
10.11.2019 23:00:00 7,0 5,5 6,2 11,0 15,3 6 4 15 8 SE 1016,4 20 0 0,0
10.11.2019 22:00:00 7,5 5,8 6,2 11,1 15,3 14 8 21 12 W 1016,1 20 0 0,0
10.11.2019 21:00:00 7,7 5,8 6,3 11,3 15,3 19 10 26 14 W 1015,9 19 0 0,0
10.11.2019 20:00:00 8,2 5,3 6,7 11,5 15,3 18 10 25 13 W 1016,0 20 0 0,0
10.11.2019 19:00:00 10,2 5,4 8,3 11,5 15,3 15 8 28 15 W 1015,8 20 0 0,0
10.11.2019 18:00:00 9,8 5,2 8,1 11,6 15,4 20 11 27 14 W 1015,5 19 5 0,0
10.11.2019 17:00:00 10,4 5,0 9,7 11,5 15,4 14 8 23 13 W 1014,9 20 37 0,0
10.11.2019 16:00:00 10,6 5,6 10,9 11,3 15,4 11 6 17 9 WSW 1014,4 18 25 0,0
10.11.2019 15:00:00 11,8 6,3 14,5 11,0 15,5 8 5 12 7 W 1014,0 12 50 0,0
10.11.2019 14:00:00 9,7 7,1 9,6 10,7 15,4 6 4 12 6 SSE 1014,1 20 16 0,0
10.11.2019 13:00:00 8,3 6,8 9,2 10,6 15,5 6 3 16 9 SE 1014,0 20 10 0,0
10.11.2019 12:00:00 8,1 7,5 7,6 10,6 15,5 8 5 18 10 E 1014,4 20 0 1,0
10.11.2019 11:00:00 8,0 7,4 7,0 10,6 15,5 10 5 22 12 ESE 1013,5 20 0 1,0
10.11.2019 10:00:00 7,7 6,5 6,9 10,7 15,5 8 4 16 9 E 1013,4 4,2 0 0,8
10.11.2019 09:00:00 7,8 5,9 6,7 10,8 15,5 13 7 54 29 WNW 1012,4 16 0 1,6
10.11.2019 08:00:00 9,6 4,0 7,0 10,8 15,5 22 12 63 34 NW 1012,1 20 0 0,2
10.11.2019 07:00:00 10,1 4,0 7,6 10,9 15,5 47 25 66 36 WNW 1012,0 13 0 0,0
10.11.2019 06:00:00 11,7 5,3 6,8 11,0 15,6 41 22 60 32 NW 1011,8 20 0 0,0
10.11.2019 05:00:00 8,1 5,7 6,7 11,0 15,6 5 3 54 29 E 1012,2 17 0 0,2
10.11.2019 04:00:00 8,5 5,1 6,8 11,1 15,6 39 21 78 42 N 1012,8 17 0 1,2
10.11.2019 03:00:00 11,7 6,0 7,3 11,3 15,6 40 21 64 34 NW 1012,1 18 0 0,6
10.11.2019 02:00:00 10,3 5,5 7,5 11,4 15,6 46 25 78 42 NW 1012,9 9 0 0,8
10.11.2019 01:00:00 12,4 5,8 9,3 11,5 15,6 47 26 74 40 NW 1012,2 18 0 0,2
10.11.2019 00:00:00 11,3 5,4 8,2 11,6 15,6 46 25 81 44 NW 1012,1 12 0 0,0
09.11.2019 23:00:00 10,0 6,5 7,8 11,7 15,6 57 31 84 46 NW 1012,4 7 0 1,2
09.11.2019 22:00:00 12,0 5,6 9,0 11,8 15,7 56 30 83 45 NW 1011,7 18 0 0,0
09.11.2019 21:00:00 13,0 3,4 11,9 11,8 15,7 61 33 77 42 NW 1010,5 20 0 0,0
09.11.2019 20:00:00 13,3 5,2 11,0 11,8 15,7 59 32 80 43 NW 1010,1 17 0 0,0
09.11.2019 19:00:00 13,5 8,5 11,0 11,8 15,7 60 33 87 47 WNW 1009,7 13 0 0,2
09.11.2019 18:00:00 13,5 9,0 11,1 11,7 15,7 60 33 77 41 WNW 1009,0 13 0 0,8
09.11.2019 17:00:00 12,2 11,4 11,0 11,7 15,8 51 28 65 35 SW 1008,8 3,2 0 1,0
09.11.2019 16:00:00 12,0 10,4 10,6 11,6 15,8 48 26 63 34 SW 1009,7 12 0 0,4

tt = Température de l'air
td = dewpoint
tt 5cm = Température de l'air 5cm
tt -20cm = Température de l'air -20cm
tt -100cm = Température de l'air -100cm
ff = Vitesse du vent
fx = gusts
dd = Direction du vent
ppp = reduced air pressure
vv = visibility
sd = Ensoleillement
rr = Quantités de précipitations

stations d'obs. à proximité